Location: �clusier
(49.9361°N, 2.7869°E)
Time: 05:51:51
(UTC+00:00)

Cosmos 2016 Rocket - Pass Details

Date: 27 October 2021
Orbit: 947 x 1000 km, 83.0° (Epoch: 05 December)

Event Time Altitude Azimuth Distance (km) Brightness Sun altitude
Rises 20:27:10 0° 216° (SW) 3,650 7.1 -37.3°
Reaches altitude 10° 20:29:54 10° 224° (SW) 2,699 6.4 -37.7°
Enters shadow 20:30:57 15° 230° (SW) 2,360 6.2 -37.8°
Exits shadow 20:34:35 34° 271° (W) 1,525 5.3 -38.3°
Maximum altitude 20:35:31 36° 290° (WNW) 1,477 5.2 -38.5°
Drops below altitude 10° 20:41:08 10° 356° (N) 2,689 6.6 -39.2°
Sets 20:43:52 0° 5° (N) 3,634 7.3 -39.6°
